This is the latest recevied weather packets stored in our database for station/object OE6PLD-13. If no packets are shown the sender has not sent any weather packets the latest 10 day(s).
| Time | Temp. | Humidity | Pressure | Rain* | Wind** | Luminosity | Snow |
|---|---|---|---|---|---|---|---|
| 1777710856 | 21.67° C | 38% | 1010.9 hPa | 0.76 mm | - | 706 W/m² | - |
| 1777710672 | 21.67° C | 39% | 1010.9 hPa | 0.76 mm | - | 712 W/m² | - |
| 1777710489 | 21.67° C | 39% | 1010.8 hPa | 0.76 mm | - | 692 W/m² | - |
| 1777710306 | 21.67° C | 38% | 1011 hPa | 0.76 mm | - | 676 W/m² | - |
| 1777710122 | 21.67° C | 38% | 1011.2 hPa | 0.76 mm | - | 690 W/m² | - |
| 1777709939 | 21.11° C | 40% | 1010.9 hPa | 0.76 mm | - | 721 W/m² | - |
| 1777709755 | 21.11° C | 40% | 1011 hPa | 0.76 mm | - | 734 W/m² | - |
| 1777709572 | 21.11° C | 39% | 1011 hPa | 0.76 mm | - | 746 W/m² | - |
| 1777709389 | 21.11° C | 41% | 1011.1 hPa | 0.76 mm | - | 723 W/m² | - |
| 1777709205 | 21.11° C | 41% | 1011.3 hPa | 0.76 mm | - | 708 W/m² | - |
| 1777709022 | 21.11° C | 41% | 1011 hPa | 0.76 mm | - | 678 W/m² | - |
| 1777708838 | 21.11° C | 40% | 1011 hPa | 0.76 mm | - | 646 W/m² | - |
| 1777708655 | 20.56° C | 41% | 1011.2 hPa | 0.76 mm | - | 635 W/m² | - |
| 1777708472 | 20.56° C | 40% | 1011.2 hPa | 0.76 mm | - | 617 W/m² | - |
| 1777708288 | 20.56° C | 42% | 1011.3 hPa | 0.76 mm | - | 598 W/m² | - |
| 1777708105 | 20° C | 43% | 1011.3 hPa | 0.76 mm | - | 571 W/m² | - |
| 1777707922 | 20° C | 42% | 1011.2 hPa | 0.76 mm | - | 565 W/m² | - |
| 1777707738 | 20° C | 43% | 1011.3 hPa | 0.76 mm | - | 571 W/m² | - |
| 1777707555 | 20° C | 43% | 1011.5 hPa | 0.76 mm | - | 605 W/m² | - |
| 1777707372 | 19.44° C | 46% | 1011.5 hPa | 0.76 mm | - | 626 W/m² | - |
| 1777707188 | 19.44° C | 44% | 1011.5 hPa | 0.76 mm | - | 626 W/m² | - |
| 1777707005 | 20° C | 44% | 1011.4 hPa | 0.76 mm | - | 625 W/m² | - |
| 1777706821 | 19.44° C | 45% | 1011.4 hPa | 0.76 mm | - | 612 W/m² | - |
| 1777706638 | 19.44° C | 46% | 1011.5 hPa | 0.76 mm | - | 586 W/m² | - |
| 1777706455 | 18.89° C | 46% | 1011.3 hPa | 0.76 mm | - | 553 W/m² | - |
* Rain latest hour (hover to see other rain measurements)
** Current wind speed in m/s (hover to see current wind gust speed)